Home   Weather   Ashland   Past weeks
Flag for USA

Past Weather in Ashland, Nebraska, USA — Yesterday and Last 2 Weeks

Now
79 °F

Broken clouds.


Feels Like: 80 °F
Forecast: 78 / 62 °F
Wind: 9 mph from North

Location: Millard Airport

Current Time: Jul 22, 2019 at 4:28:51 pm

Latest Report: Jul 22, 2019 at 3:55 pm


Visibility: 10 mi

Pressure: 30.25 "Hg

Humidity: 46%

Dew Point: 56 °F

Location of AshlandLocation

Past Weather in Ashland — Graph

°F

Ashland Temperature Yesterday

Maximum temperature yesterday: 76 °F (at 12:15 am)
Minimum temperature yesterday: 70 °F (at 8:34 am)
Average temperature yesterday: 73 °F

High & Low Weather Summary for the Past Weeks

 TemperatureHumidityPressure
High99 °F (Jul 19, 4:55 pm)96% (Jul 12, 5:15 am)30.27 "Hg (Jul 12, 5:15 am)
Low65 °F (Jul 11, 6:15 am)38% (Jul 11, 4:15 pm)29.65 "Hg (Jul 18, 6:35 pm)
Average81 °F70%29.93 "Hg
* Reported Jul 7 3:35 pm — Jul 22 3:15 pm, Ashland. Weather by CustomWeather, © 2019

Note: Actual official high and low records may vary slightly from our data, if they occured in-between our weather recording intervals... More about our weather records

Advertising

Ashland Weather History for the Previous 24 Hours

Scroll right to see more
 ConditionsComfort  
Time TempWeatherWind HumidityBarometerVisibility
3:15 pm
Mon, Jul 22
79 °FPartly sunny.10 mph48%30.25 "Hg10 mi
2:55 pm78 °FScattered clouds.12 mph49%30.25 "Hg10 mi
2:35 pm79 °FScattered clouds.9 mph48%30.25 "Hg10 mi
2:15 pm78 °FScattered clouds.6 mph51%30.25 "Hg10 mi
1:55 pm79 °FScattered clouds.9 mph52%30.25 "Hg10 mi
1:35 pm78 °FScattered clouds.6 mph52%30.25 "Hg10 mi
12:55 pm77 °FScattered clouds.8 mph55%30.26 "Hg10 mi
12:35 pm77 °FScattered clouds.9 mph53%30.26 "Hg10 mi
12:15 pm76 °FScattered clouds.10 mph56%30.26 "Hg10 mi
11:55 am76 °FSunny.9 mph55%30.27 "Hg10 mi
11:35 am76 °FSunny.8 mph57%30.26 "Hg10 mi
11:15 am75 °FSunny.6 mph58%30.27 "Hg10 mi
10:55 am75 °FSunny.8 mph61%30.26 "Hg10 mi
10:35 am74 °FSunny.6 mph62%30.26 "Hg10 mi
10:15 am73 °FSunny.3 mph63%30.26 "Hg10 mi
9:55 am73 °FSunny.8 mph66%30.25 "Hg10 mi
9:35 am72 °FSunny.7 mph68%30.25 "Hg10 mi
8:55 am70 °FSunny.5 mph73%30.25 "Hg10 mi
8:35 am69 °FSunny.5 mph76%30.25 "Hg10 mi
8:15 am68 °FSunny.5 mph77%30.24 "Hg10 mi
7:55 am67 °FSunny.3 mph80%30.23 "Hg10 mi
6:55 am66 °FSunny.5 mph84%30.22 "Hg10 mi
6:35 am66 °FSunny.3 mph84%30.21 "Hg10 mi
6:15 am66 °FSunny.5 mph84%30.20 "Hg10 mi
5:55 am66 °FClear.6 mph84%30.19 "Hg10 mi
5:15 am67 °FClear.3 mph82%30.18 "Hg10 mi
4:55 am68 °FClear.5 mph80%30.18 "Hg10 mi
4:15 am70 °FClear.7 mph80%30.17 "Hg10 mi
3:55 am71 °FPartly cloudy.6 mph81%30.17 "Hg10 mi
3:15 am71 °FPartly cloudy.8 mph83%30.16 "Hg10 mi
2:55 am71 °FPartly cloudy.6 mph83%30.15 "Hg10 mi
2:15 am71 °FOvercast.No wind82%30.16 "Hg10 mi
1:55 am71 °FMostly cloudy.3 mph81%30.16 "Hg10 mi
1:15 am71 °FOvercast.3 mph80%30.15 "Hg10 mi
12:55 am71 °FOvercast.No wind81%30.15 "Hg10 mi
12:15 am71 °FPassing clouds.3 mph83%30.14 "Hg10 mi
11:55 pm
Sun, Jul 21
71 °FClear.No wind83%30.13 "Hg10 mi
11:35 pm71 °FClear.No wind82%30.13 "Hg10 mi
11:15 pm72 °FPassing clouds.No wind80%30.13 "Hg10 mi
10:55 pm72 °FOvercast.No wind78%30.13 "Hg10 mi
10:15 pm73 °FOvercast.3 mph78%30.13 "Hg10 mi
9:55 pm72 °FPassing clouds.No wind79%30.12 "Hg10 mi
9:15 pm73 °FPassing clouds.3 mph76%30.12 "Hg10 mi
8:55 pm74 °FClear.No wind74%30.11 "Hg10 mi
8:15 pm75 °FSunny.6 mph73%30.10 "Hg10 mi
7:55 pm75 °FSunny.3 mph74%30.09 "Hg10 mi
7:15 pm75 °FSunny.7 mph75%30.09 "Hg10 mi
6:55 pm75 °FScattered clouds.6 mph75%30.09 "Hg10 mi
6:15 pm75 °FMostly cloudy.8 mph76%30.09 "Hg10 mi
5:55 pm76 °FMostly cloudy.8 mph78%30.09 "Hg10 mi
5:35 pm76 °FMore clouds than sun.5 mph77%30.09 "Hg10 mi
5:15 pm76 °FMore clouds than sun.6 mph78%30.08 "Hg10 mi
4:55 pm76 °FMore clouds than sun.5 mph80%30.07 "Hg10 mi
4:15 pm75 °FCloudy.3 mph84%30.07 "Hg10 mi
Weather by CustomWeather, © 2019

See weather overview